Amistad Reservoir Weather Center

Moon Phase Calendar



Amistad Reservoir Water Level
Online Cameras

 


      

Current Conditions in Cienegas Terrace
2/23/2024 7:35:13 AM

54°F
Feels Like 51
Clouds
Humidity
43%
Pressure
30.12"
Wind
6 mph (NNW)
Dew Point
32°F
UV Index
0/10 (Low)
Visibility
6 mi

Hourly Forecast

Date & Time Fri, Feb 23
7:00 AM
Fri, Feb 23
8:00 AM
Fri, Feb 23
9:00 AM
Fri, Feb 23
10:00 AM
Fri, Feb 23
11:00 AM
Fri, Feb 23
12:00 PM
Fri, Feb 23
1:00 PM
Fri, Feb 23
2:00 PM
Fri, Feb 23
3:00 PM
Fri, Feb 23
4:00 PM
Fri, Feb 23
5:00 PM
Fri, Feb 23
6:00 PM
Fri, Feb 23
7:00 PM
Fri, Feb 23
8:00 PM
Fri, Feb 23
9:00 PM
Fri, Feb 23
10:00 PM
Fri, Feb 23
11:00 PM
Sat, Feb 24
12:00 AM
Sat, Feb 24
1:00 AM
Sat, Feb 24
2:00 AM
Sat, Feb 24
3:00 AM
Sat, Feb 24
4:00 AM
Sat, Feb 24
5:00 AM
Sat, Feb 24
6:00 AM
Sat, Feb 24
7:00 AM
Sat, Feb 24
8:00 AM
Sat, Feb 24
9:00 AM
Sat, Feb 24
10:00 AM
Sat, Feb 24
11:00 AM
Sat, Feb 24
12:00 PM
Sat, Feb 24
1:00 PM
Sat, Feb 24
2:00 PM
Sat, Feb 24
3:00 PM
Sat, Feb 24
4:00 PM
Sat, Feb 24
5:00 PM
Sat, Feb 24
6:00 PM
Sat, Feb 24
7:00 PM
Sat, Feb 24
8:00 PM
Sat, Feb 24
9:00 PM
Sat, Feb 24
10:00 PM
Sat, Feb 24
11:00 PM
Sun, Feb 25
12:00 AM
Sun, Feb 25
1:00 AM
Sun, Feb 25
2:00 AM
Sun, Feb 25
3:00 AM
Sun, Feb 25
4:00 AM
Sun, Feb 25
5:00 AM
Sun, Feb 25
6:00 AM
Condition
Clouds

Clouds

Clouds

Clouds

Clouds

Clouds

Clouds

Clouds

Clouds

Clouds

Clouds

Clouds

Clouds

Clouds

Clouds

Clouds

Clouds

Clouds

Clouds

Clouds

Clouds

Clouds

Clouds

Clouds

Clouds

Clouds

Clouds

Clouds

Clouds

Clouds

Clouds

Clouds

Clouds

Clouds

Clouds

Clear

Clear

Clear

Clear

Clouds

Clouds

Clouds

Clear

Clear

Clear

Clear

Clouds

Clouds
Temperature 55°F54°F56°F59°F62°F67°F72°F74°F75°F76°F76°F74°F70°F68°F68°F67°F66°F63°F62°F60°F59°F58°F57°F56°F55°F56°F60°F64°F68°F71°F74°F76°F77°F78°F77°F75°F72°F70°F68°F67°F66°F65°F63°F61°F59°F58°F58°F57°F
Feels Like 52°F51°F53°F56°F60°F65°F70°F72°F74°F74°F74°F72°F68°F66°F66°F65°F64°F61°F59°F58°F57°F56°F55°F54°F53°F54°F58°F62°F66°F70°F73°F75°F76°F76°F76°F74°F70°F68°F67°F65°F64°F63°F61°F59°F58°F57°F56°F55°F
Cloudiness 41%47%49%50%54%56%65%64%76%77%70%70%70%47%63%66%72%67%93%92%87%89%91%90%70%47%59%62%57%51%49%27%19%14%12%10%0%1%2%27%41%51%0%1%4%4%18%18%
Visibility 6 mi6 mi6 mi6 mi6 mi6 mi6 mi6 mi6 mi6 mi6 mi6 mi6 mi6 mi6 mi6 mi6 mi6 mi6 mi6 mi6 mi6 mi6 mi6 mi6 mi6 mi6 mi6 mi6 mi6 mi6 mi6 mi6 mi6 mi6 mi6 mi6 mi6 mi6 mi6 mi6 mi6 mi6 mi6 mi6 mi6 mi6 mi6 mi
Precipitation 0%0%0%0%0%0%0%0%0%0%0%0%0%0%0%0%0%0%0%0%0%0%0%0%0%0%0%0%0%0%0%0%0%0%0%0%0%0%0%0%0%0%0%0%0%0%0%0%
Humidity 43%43%42%39%35%30%24%22%21%20%20%22%26%28%29%31%32%36%41%46%51%54%57%60%63%63%56%49%43%38%33%30%29%27%27%29%32%34%37%39%42%45%49%53%56%60%65%71%
Dew Point 33°F32°F33°F34°F34°F34°F34°F33°F33°F33°F33°F33°F34°F34°F35°F35°F36°F36°F38°F40°F41°F41°F42°F42°F43°F44°F44°F45°F44°F44°F44°F43°F42°F42°F41°F41°F41°F41°F41°F42°F43°F43°F44°F44°F44°F45°F46°F47°F
Pressure 30.12"30.12"30.12"30.12"30.15"30.12"30.09"30.03"30"30"30"30"30.03"30.06"30.09"30.09"30.09"30.09"30.09"30.09"30.09"30.12"30.12"30.15"30.15"30.18"30.18"30.18"30.15"30.12"30.09"30.03"30.03"30"30"30"30"30.03"30.03"30.03"30.03"30.03"30.03"30.03"30"30"30"30"
Wind Speed 6.1 mph6 mph6 mph6.1 mph4.9 mph3.9 mph4.4 mph5.7 mph6.5 mph7.9 mph8.4 mph8.6 mph8.1 mph8.3 mph8.6 mph8.6 mph9.1 mph9.4 mph9.8 mph10.1 mph10.8 mph11.7 mph11.8 mph11.3 mph11.5 mph12.3 mph16.4 mph19.7 mph22 mph22.5 mph22.5 mph22.9 mph22.2 mph22.4 mph22.4 mph21.6 mph20.5 mph19.4 mph18.6 mph18.6 mph17.6 mph15.8 mph14.6 mph14.8 mph14.4 mph13.5 mph12.3 mph10.4 mph
Wind
Direction
332°
NNW
343°
NNW

N
26°
NNE
61°
ENE
90°
E
111°
ESE
124°
SE
139°
SE
144°
SE
149°
SSE
145°
SE
140°
SE
151°
SSE
154°
SSE
146°
SE
137°
SE
132°
SE
121°
ESE
117°
ESE
113°
ESE
120°
ESE
122°
ESE
125°
SE
129°
SE
132°
SE
141°
SE
149°
SSE
154°
SSE
156°
SSE
156°
SSE
158°
SSE
159°
SSE
159°
SSE
158°
SSE
153°
SSE
150°
SSE
153°
SSE
155°
SSE
158°
SSE
160°
SSE
160°
SSE
151°
SSE
139°
SE
140°
SE
141°
SE
136°
SE
127°
SE

Daily Forecast

Date High Low Precip. Humidity
Today
Feb 23

Clouds
76 °F
54 °F
0%
31%
Saturday
Feb 24

Clouds
78 °F
55 °F
0%
39%
Sunday
Feb 25

Clouds
84 °F
56 °F
0%
41%
Monday
Feb 26

Clouds
90 °F
64 °F
0%
27%
Tuesday
Feb 27

Clouds
86 °F
67 °F
0%
45%
Wednesday
Feb 28

Clouds
74 °F
62 °F
4%
34%
Thursday
Feb 29

Clear
77 °F
51 °F
8%
39%
Friday
Mar 1

Clouds
76 °F
54 °F
0%
51%
Saturday
Mar 2

Clear
77 °F
54 °F
20%
46%
Sunday
Mar 3

Clouds
77 °F
58 °F
12%
75%
Monday
Mar 4

Clouds
81 °F
61 °F
0%
22%
Tuesday
Mar 5

Clouds
80 °F
57 °F
0%
12%
Wednesday
Mar 6

Clouds
80 °F
59 °F
0%
41%
Thursday
Mar 7

Rain
83 °F
61 °F
28%
11%
Friday
Mar 8

Clear
78 °F
62 °F
0%
10%
Saturday
Mar 9

Clear
72 °F
50 °F
0%
23%

Temperature 8-14 Day Outlook



Precipitation 8-14 Day Outlook




Quick Links
Amistad Reservoir News
Amistad Reservoir Photos
Amistad Reservoir Videos




About Us
Contact Us
Site Map
Search Site
Advertise With Us
   
Amistad.USLakes.info
THE AMISTAD RESERVOIR WEBSITE

Copyright 2024, Lakes Online
Privacy    |    Legal